Terminal Aerodrome Forecast
Issued by NWS Aberdeen, SD

Home | Current Version | Previous Version | Text Only | Print | Product List | Glossary On
Versions: 1 2 3 4 5 6 7 8 9 10 11 12 13 14 15 16 17 18 19 20 21 22 23 24 25 26 27 28 29 30 31 32 33 34 35 36 37 38 39 40 41 42 43 44 45 46 47 48 49 50
000
FTAK31 PAFA 161904 AAA
TAFABR
TAF AMD
PABR 161904Z 1619/1718 27009KT P6SM FEW007 OVC015
     FM170000 30008KT P6SM OVC009
     FM170700 31007KT 2SM BR OVC004
     FM171000 34006KT 1SM BR OVC002=

USA.gov is the U.S. government's official web portal to all federal, state and local government web resources and services.